Regional Weather Roundup
Issued by NWS

Home | Current Version | Previous Version | Graphics & Text | Print | Product List | Glossary On
Versions: 1 2 3 4 5 6 7 8 9 10 11 12 13 14 15 16 17 18 19 20 21 22 23 24 25 26 27 28 29 30 31 32 33 34 35 36 37 38 39 40 41 42 43 44 45 46 47 48 49 50
000
ASUS43 KFSD 291110
RWRSD

WEATHER ROUNDUP FOR SOUTH DAKOTA
NATIONAL WEATHER SERVICE SIOUX FALLS SD
600 AM CDT MON JUN 29 2015

NOTE: "FAIR" INDICATES FEW OR NO CLOUDS BELOW 12,000 FEET WITH NO
SIGNIFICANT WEATHER AND/OR OBSTRUCTIONS TO VISIBILITY.


SDZ001>005-009-010-012>017-291200-
NORTHWEST AND NORTH CENTRAL SOUTH DAKOTA

CITY           SKY/WX    TMP DP  RH WIND       PRES   REMARKS
BUFFALO          N/A     64  56  75 CALM      29.99S
FAITH            N/A     61  54  77 SW8       30.03R
MOBRIDGE       CLEAR     59  58  96 N6        29.96R
$$

SDZ012>016-024>037-041>051-057-063-072>074-291200-
SOUTHWEST AND SOUTH CENTRAL SOUTH DAKOTA

CITY           SKY/WX    TMP DP  RH WIND       PRES   REMARKS
RAPID CTY ARPT LGT RAIN  67  56  67 W20G26    30.08R
PIERRE         CLEAR     57  54  89 W3        29.98R
CUSTER         TSTM      58  53  84 NE5       30.27R
ELLSWORTH AFB  CLOUDY    65  58  79 W9        30.06
PHILIP         CLEAR     59  58  96 W6        30.02R
PINE RIDGE     MOCLDY    60  56  86 W6        30.11R
SPEARFISH      CLOUDY    64  55  72 E14       30.16R
WINNER         FAIR      61  50  67 CALM      30.01S
$$

SDZ004>011-016>023-039-040-291200-
NORTHEAST SOUTH DAKOTA

CITY           SKY/WX    TMP DP  RH WIND       PRES   REMARKS
ABERDEEN       CLOUDY    63  58  83 NW5       29.93R
WATERTOWN      CLEAR     62  59  90 CALM      29.92S
BROOKINGS      CLEAR     61  55  82 CALM      29.94S
SISSETON         N/A     66  60  81 NW8       29.87S
$$

SDZ017-020-022-023-036>040-048>070-291200-
SOUTHEAST SOUTH DAKOTA

CITY           SKY/WX    TMP DP  RH WIND       PRES   REMARKS
SIOUX FALLS    CLEAR     63  59  87 CALM      29.92R
HURON          CLEAR     59  58  96 W5        29.94R FOG
CHAMBERLAIN    CLEAR     57  55  93 W3        29.98S
MITCHELL       CLEAR     62  58  86 W6        29.95R
YANKTON        CLEAR     63  55  77 NW9       29.93R
$$

ABBREVIATIONS USED IN REMARKS
   TC - TEMPERATURE IN CELSIUS
  WCI - WIND CHILL INDEX
   HX - HEAT INDEX
  VSB - VISIBILITY



USA.gov is the U.S. government's official web portal to all federal, state and local government web resources and services.